Weather Roundup
Issued by NWS Springfield, MO

Home | Current Version | Previous Version | Text Only | Print | Product List | Glossary On
Versions: 1 2 3 4 5 6 7 8 9 10 11 12 13 14 15 16 17 18 19 20 21 22 23 24 25 26 27 28 29 30 31 32 33 34 35 36 37 38 39 40 41 42 43 44 45 46 47 48 49 50
000
NZUS99 KSGF 011907
HRRSGF

HOURLY WEATHER
NATIONAL WEATHER SERVICE SPRINGFIELD MO
200 PM CDT MON SEP 01 2014

......SGF CWA......

CITY           SKY/WX    TMP DP  RH WIND       PRES   REMARKS
SPRINGFIELD    SUNNY     82  65  56 S22G30    29.92F
JOPLIN         MOSUNNY   84  68  58 S17G29    29.89F
WEST PLAINS    MOSUNNY   78  67  68 S8        29.99F
ROLLA          CLOUDY    78  67  68 W9        29.91R
OSAGE BEACH    MOSUNNY   81  64  57 SW5       29.91F
BRANSON        MOSUNNY   82  66  57 SE15G22   29.98F

......SURROUNDING SGF CWA......

CITY           SKY/WX    TMP DP  RH WIND       PRES   REMARKS
CHANUTE        CLOUDY    79  68  69 S17G24    29.89F
PARSONS        CLOUDY    79  68  69 S9G18     29.90S
COFFEYVILLE    CLOUDY    79  69  71 S10       29.88F
EMPORIA        CLOUDY    77  67  71 SE10      29.90F
GROVE OK       MOSUNNY   86  72  62 S17       29.89F HX  92
ROGERS AR      SUNNY     82  69  64 SE13      29.95F
HARRISON AR    MOSUNNY   82  68  62 S15G22    29.98F
NEAR YELLVILLE MOSUNNY   82  63  51 SE3       29.98F

......KANSAS AND MISSOURI......

CITY           SKY/WX    TMP DP  RH WIND       PRES   REMARKS
KANSAS CTY INT CLOUDY    77  67  71 W8        29.91R
DOWNTOWN KC    CLOUDY    81  66  60 W9        29.89S
COLUMBIA       PTSUNNY   81  65  58 W14       29.91S
SEDALIA        PTSUNNY   80  66  62 W15       29.92S
ST JOSEPH      PTSUNNY   79  67  66 W7        29.89S
ST LOUIS       CLOUDY    86  66  51 NW12      29.91R
SPIRIT OF STL  PTSUNNY   81  64  56 SW12      29.89S
KIRKSVILLE     PTSUNNY   76  65  68 SW14G21   29.89R
WICHITA        CLOUDY    82  69  64 VRB7      29.86F
TOPEKA         CLOUDY    79  67  66 W5        29.91S
OLATHE         MOSUNNY   78  68  71 SW9       29.91F

......TENNESSEE......

CITY           SKY/WX    TMP DP  RH WIND       PRES   REMARKS
MEMPHIS        MOSUNNY   88  75  65 SW8       30.03F HX  97
NASHVILLE      PTSUNNY   91  68  46 SW16G23   30.04F HX  95

......ARKANSAS.......

CITY           SKY/WX    TMP DP  RH WIND       PRES   REMARKS
FAYETTEVILLE   MOSUNNY   84  70  62 S21       29.94F
FT SMITH       MOSUNNY   92  70  48 S9        29.91F HX  97
LITTLE ROCK    PTSUNNY   89  70  53 S12G18    30.00F HX  94

......OKLAHOMA.......

CITY           SKY/WX    TMP DP  RH WIND       PRES   REMARKS
TULSA          MOSUNNY   92  71  50 S20G28    29.81F HX  98
PONCA CITY     CLOUDY    85  71  63 SE13      29.83F HX  90
MCALESTER      MOSUNNY   90  73  57 S10G21    29.90F HX  98
OKLAHOMA CITY  MOSUNNY   94  68  42 S21G31    29.83F HX  98

......IOWA............

CITY           SKY/WX    TMP DP  RH WIND       PRES   REMARKS
DES MOINES     MOSUNNY   81  63  54 W18       29.81R
QUAD CITIES    MOSUNNY   81  65  58 SW14G21   29.78S

......ILLINOIS........

CITY           SKY/WX    TMP DP  RH WIND       PRES   REMARKS
QUINCY         PTSUNNY   79  65  62 W13G18    29.88R
CHICAGO        MOSUNNY   81  63  54 SW17G29   29.77S




USA.gov is the U.S. government's official web portal to all federal, state and local government web resources and services.